Regional Weather Roundup
Issued by NWS

Home | Current Version | Previous Version | Graphics & Text | Print | Product List | Glossary On
Versions: 1 2 3 4 5 6 7 8 9 10 11 12 13 14 15 16 17 18 19 20 21 22 23 24 25 26 27 28 29 30 31 32 33 34 35 36 37 38 39 40 41 42 43 44 45 46 47 48 49 50
000
ASUS43 KBIS 142310
RWRND

NORTH DAKOTA REGIONAL WEATHER ROUNDUP
NATIONAL WEATHER SERVICE BISMARCK ND
600 PM CDT SUN SEP 14 2014

NOTE: "FAIR" INDICATES FEW OR NO CLOUDS BELOW 12,000 FEET WITH NO
SIGNIFICANT WEATHER AND/OR OBSTRUCTIONS TO VISIBILITY.


NDZ001>003-009>011-017-150000-
NORTHWEST NORTH DAKOTA

CITY           SKY/WX    TMP DP  RH WIND       PRES   REMARKS
WILLISTON      CLOUDY    56  29  35 CALM      30.16R
MINOT          CLOUDY    55  32  41 N12       30.14R
MINOT AFB      CLOUDY    56  32  41 N10       30.13S
$$

NDZ018>021-031>035-040>046-150000-
SOUTHWEST NORTH DAKOTA

CITY           SKY/WX    TMP DP  RH WIND       PRES   REMARKS
BISMARCK       MOSUNNY   58  32  37 N10       30.14S
DICKINSON      CLOUDY    54  31  41 CALM      30.13S
GARRISON         N/A     55  33  43 N9        30.14R
HETTINGER ARPT CLOUDY    57  30  35 SE5       30.14R
$$

NDZ004>008-012>016-024-026-027-054-150000-
NORTHEAST NORTH DAKOTA

CITY           SKY/WX    TMP DP  RH WIND       PRES   REMARKS
GRAND FORKS    CLOUDY    56  41  57 NW7       30.10S
GRND FRKS AFB  CLOUDY    56  40  54 N8        30.11S
DEVILS LAKE    CLOUDY    55  34  44 NW9       30.11R
$$

NDZ022-023-025-028>030-036>039-047>053-150000-
SOUTHEAST NORTH DAKOTA

CITY           SKY/WX    TMP DP  RH WIND       PRES   REMARKS
FARGO          CLOUDY    58  41  53 NW9       30.11S
JAMESTOWN      CLOUDY    55  40  56 N7        30.12R
$$




USA.gov is the U.S. government's official web portal to all federal, state and local government web resources and services.